Погода Кайластуй

Погода Кайластуй : погода сейчас, прогноз погоды и архив. Всё, что Вы хотите узнать о погоде Кайластуй!

Хотите узнать прогноз погоды Кайластуй? Тогда Вам сюда: Погода Кайластуй

Поиск расширенной информации на нашем сайте:

Полезная информация: Подробная информация игровая детская площадка тут.

Другие новости

Новости СМИ2

Главная страница сайта

Новости сайта

02.10.2013

Напоминаем, что на нашем новом сайте вы можете получить высокодетализированные прогнозы погоды по пунктам России, СНГ и мира (включающие важные для авиации метеовеличины, такие как направление и скорость ветра, видимость, явления погоды, количество и форма облачности, нижняя и верхняя граница облачности), а также ознакомиться с разнообразными материалами по авиационной метеорологии и подборкой полезных ссылок на эту тему.

Сайт Метеоцентр.Азия посвящён разработке технологий оптимизации авиаметеорологического обслуживания, включая проектирование и перспективное создание нескольких автоматизированных авиаметеорологических систем:
- система выпуска высокодетальных прогностических карт явлений погоды для нижнего воздушного пространства по России и ближнему зарубежью;
- система верификации прогнозов TAF (выпускаемых синоптиками официальных АМСГ РФ и ближнего зарубежья) и AUTOTAF (выпускаемых сайтом Метеоцентр.Азия) - выявление ошибок, онлайн-сопоставление с фактической погодой METAR, автоматическое внесение коррективов в прогнозы при резком отклонении фактической погоды от прогноза, подсчёт оправдываемости прогнозов по элементам и в целом;
- система обработки, анализа и отображения авиаметеорологической информации для применения провайдерами метеорологической информации.

Рекомендуем: Чебплитка на нашем сайте вы сможете купить брусчатку.

Погода Кайластуй - сегодня

Время (UTC), дата Ветер
(°,м/с) 
Видим.   Явления Облачность Т
(°С)
Тd
(°С)
f(%) Тe
(°С)
Pmin
(гПа)
dP
(гПа)
Po
(мм)
O2
(г/м3)
Тmin Tmax R s Состояние
почвы
00 23.02.17 100 (В) 20000 м    ясно 
-26.1 -29 77 -29  1028.5  -1  716  321  -27.5      равномерный
сухой снег
100% 
03 23.02.17 190 (Ю) 20000 м    1/0 верхняя 
[Ci fib]
-15.8 -21.3 63 -22  1024.1  -1.2  715  307           
06 23.02.17 220 (ЮЗ) 7-10{10}  20000 м    3/0 верхняя 
[Ci fib]
-12.3 -16.9 69 -19  1020.6  -2.4  713  302           
09 23.02.17 210 (ЮЗ) 3{10}  20000 м    3/0 верхняя 
[Ci fib]
-8.9 -15.3 60 -12  1018.4  -1.2  712  298           
12 23.02.17 340 (С) 20000 м    1/0 верхняя 
[Ci fib]
-11 -16.3 65 -16  1019.1  0.2  712  300    -7.6       
15 23.02.17 230 (ЮЗ) 20000 м    ясно 
-16.6 -19 82 -19  1020.9  0.2  712  307           
18 23.02.17 190 (Ю) 20000 м    ясно 
-17.6 -19.2 87 -20  1020.4  -0.7  712  308           
21 23.02.17 160 (Ю) 20000 м    ясно 
-19.5 -21.6 83 -22  1020.4  -0.5  711  310           
00 24.02.17 150 (ЮВ) 20000 м    3/0 верхняя 
[Ci fib]
-17.8 -20.3 81 -20  1020  -0.1  711  308  -20.5      равномерный
сухой снег
100% 
03 24.02.17 350 (С) 20000 м    10/0 средняя 
[As trans]
-5.8 -12.3 60 -10  1016.2  -0.4  711  294           
06 24.02.17 280 (З) 7-11{13}  20000 м    8/4 1000 м средняя, верхняя 
[Cu hum|Ac lent|Cc]
-4.5 -9.1 70 -9  1014.6  -1.2  710  292           
09 24.02.17 290 (З) 8-10{12}  20000 м    1/1 1000 м 
[Cu med, cong]
-3.7 -8.9 67 -9  1015.1  0.6  711  291           
12 24.02.17 340 (С) 4{10}  20000 м    ясно 
-7.7 -12.2 70 -11  1017.9  1.6  712  296    -2.4       
15 24.02.17 160 (Ю) 20000 м    ясно 
-13.9 -16.5 81 -16  1021.1  1.3  713  304           
18 24.02.17 250 (З) 20000 м    ясно 
-15.9 -18 84 -16  1022.2  0.5  713  307           
21 24.02.17 140 (ЮВ) 20000 м    ясно 
-17.9 -19.7 86 -18  1022.5  -0.3  713  309           
00 25.02.17 тихо ()   20000 м    1/0 верхняя 
[Ci sp]
-19.1 -20.7 87 -19  1023.8  0.9  714  311  -20.5      равномерный
сухой снег
100% 
03 25.02.17 160 (Ю) 20000 м    ясно 
-7.7 -13.8 62 -7  1020.9  0.3  714  297           
06 25.02.17 250 (З) 20000 м    ясно 
-2.6 -8.6 63 -5  1018.6  -0.9  713  291           
09 25.02.17 240 (ЮЗ) 20000 м    ясно 
-3.6 -9.5 64 -7  1019.1  0.2  714  292           
12 25.02.17 300 (СЗ) 20000 м    ясно 
-8.2 -12.6 71 -10  1020.6  0.3  714  298    -1.5       
15 25.02.17 160 (Ю) 20000 м    ясно 
-16.7 -18.3 87 -17  1024  0.9  714  308           
18 25.02.17 040 (СВ) 20000 м    ясно 
-18.7 -20.3 87 -19  1024.6  714  310           
21 25.02.17 210 (ЮЗ) 20000 м    ясно 
-17.4 -18.9 88 -20  1024.1  714  309           
00 26.02.17 210 (ЮЗ) 20000 м    ясно 
-14.8 -16.2 89 -20  1023.2  -0.2  714  306  -19.5      равномерный
сухой снег
100% 
Время (UTC), дата Ветер
(°,м/с) 
Видим.   Явления Облачность Т
(°С)
Тd
(°С)
f(%) Тe
(°С)
Pmin
(гПа)
dP
(гПа)
Po
(мм)
O2
(г/м3)
Тmin Tmax R s Состояние
почвы

Для получения пояснительной информации подведите курсор к названию столбца.

ПОГОДА Кайластуй - архив

Всё, что Вы хотите узнать о погоде Кайластуй - удобно и подробно!

Выберите нужную дату (начиная с 1 января 2015* года) и нажмите кнопку "Найти".
Будут отображены архивные сводки погоды по пункту Кайластуй, начиная с указанной даты.


Отображать данные в формате CSV (для использования в таблицах Excel)


Внимание! Наш архив погоды предназначен исключительно для личного некоммерческого использования в познавательных целях. Если Вам необходимы официальные справки о состоянии погоды (для производственных, юридических, коммерческих и т.п. целей), обращайтесь в органы Росгидромета.

*Примечание: данная дата относится к архиву по метеостанциям СССР (Россия, СНГ, Балтия).
Архив по метеостанциям Зарубежной Европы и Азии (кроме Китая) хранится 10 дней, по другим регионам земного шара (Китай, Африка, Америка, Австралия, Океания) - 1 день.

Кайластуй - район местоположения метеостанции


Название, широта, долгота, высота метеостанции:
Кайластуй 49.8°ш. 118.4°д. 550 м над ур. моря [Российская Федерация]

Дополнительная информация

В oтличие oт бoльшинства пoгoдных сайтoв мы публикуем пoдрoбную метеoинфoрмацию в детальнoм прoфессиoнальнoм фoрмате.

Характеристики температуры и влажнoсти вoздуха измеряются на высoте 2 м в тени вдали oт зданий и деревьев.
Скoрoсть ветра измеряется на высoте 10 м (на урoвне рoста челoвека скoрoсть ветра ниже в 1.5-2 раза). Если метеoстанция нахoдится в гoрoде или в лесу, тo скoрoсть ветра занижена на 2-4 м/с пo сравнению с oткрытым местoм. Скoрoсть ветра над акватoриями крупных рек и oзёр, а также на вершинах хoлмoв на 2-5 м/с выше, чем в oбычных услoвиях.
Атмoсфернoе давление в разных тoчках местнoсти мoжет значительнo oтличаться oт давления на метеoстанции, в зависимoсти oт услoвий рельефа (при пoдъёме на 10 м давление пoнижается примернo на 1 мм рт.ст.).